{"data":{"norad_id":54205,"epoch":"2026-05-25T00:04:56.091072Z","epoch_age_seconds":67948,"freshness":"FRESH","line1":"1 54205U 22141BA  26145.00342698 -.00000481  00000+0 -12142-4 0  9994","line2":"2 54205  53.2142  11.1802 0001549  89.8419 270.2751 15.08835989197520","mean_motion":15.08835989,"eccentricity":0.0001549,"inclination_deg":53.2142,"raan_deg":11.1802,"arg_perigee_deg":89.8419,"mean_anomaly_deg":270.2751,"bstar":-1.2142e-5,"rev_number":19752,"period_min":95.437808383294,"perigee_km":538.68406744231,"apogee_km":540.82723058497,"semimajor_km":6917.8926490136,"source":"CELESTRAK","updated_at":"2026-05-25T13:38:17.686447Z"}}